Weather History for Hill City, KS

Change the Weather History Date:

Wednesday, February 20, 2013

  Actual Average Record
Temperature  
Mean Temperature 21 °F 34 °F  
Max Temperature 24 °F 47 °F 78 °F (1981)
Min Temperature 18 °F 21 °F 4 °F (1978)
Degree Days  
Heating Degree Days 44    
Moisture  
Dew Point 18 °F    
Average Humidity 86    
Maximum Humidity 100    
Minimum Humidity 44    
Precipitation  
Precipitation 0.38 in 0.02 in 0.38 in (2013)
Month to date precipitation 0.43 0.36  
Year to date precipitation 0.52 0.81  
Sea Level Pressure  
Sea Level Pressure 30.04 in    
Wind  
Wind Speed 15 mph (East)    
Max Wind Speed 21 mph    
Max Gust Speed 29 mph    
Visibility 2 miles    
Events Fog , Snow    
T = Trace of Precipitation, MM = Missing Value Source: NWS Daily Summary

Daily Weather History Graph

Daily Weather History Graph

Search for Another Location

Airport:

Trip Planner

Search our weather history database for the weather conditions in past years. The results will help you decide how hot, cold, wet, or windy it might be!

Date:

Astronomy

Feb. 20, 2013 Rise Set
Actual Time 7:24 AM CST 6:22 PM CST
Civil Twilight 6:57 AM CST 6:49 PM CST
Nautical Twilight 6:25 AM CST 7:20 PM CST
Astronomical Twilight 5:54 AM CST 7:51 PM CST
Moon 1:45 PM CST (2/20) 3:44 AM CST (2/20)
Length of Visible Light 11h 52m
Length of Day
10h 57m
Waxing Gibbous, 76% of the Moon is Illuminated
Feb 20
Waxing Gibbous
Feb 25
Full
Mar 4
Last Quarter
Mar 11
New
Mar 19
First Quarter

Hourly Weather History & Observations

Time (CST) Temp. Windchill Dew Point Humidity Pressure Visibility Wind Dir Wind Speed Gust Speed Precip Events Conditions
12:53 AM 21.9 °F 9.2 °F 5.0 °F 48% 30.22 in 10.0 mi East 13.8 mph - N/A   Clear
1:53 AM 21.9 °F 10.4 °F 3.9 °F 46% 30.20 in 10.0 mi East 11.5 mph - N/A   Clear
2:53 AM 21.0 °F 8.6 °F 3.0 °F 46% 30.20 in 10.0 mi East 12.7 mph - N/A   Clear
3:53 AM 21.0 °F 8.1 °F 1.9 °F 44% 30.17 in 10.0 mi East 13.8 mph - N/A   Clear
4:53 AM 19.9 °F 5.2 °F 1.9 °F 46% 30.17 in 10.0 mi East 17.3 mph - N/A   Clear
6:27 AM 19.4 °F 6.0 °F 3.2 °F 49% 30.10 in 10.0 mi East 13.8 mph 21.9 mph N/A   Overcast
6:53 AM 19.9 °F 6.2 °F 5.0 °F 52% 30.18 in 10.0 mi ESE 15.0 mph - N/A   Overcast
7:48 AM 19.4 °F 6.6 °F 10.4 °F 68% 30.11 in 1.5 mi ESE 12.7 mph - 0.00 in Snow Light Snow
7:53 AM 19.0 °F 6.1 °F 12.0 °F 74% 30.19 in 0.8 mi ESE 12.7 mph - 0.00 in Snow Light Snow
8:16 AM 19.4 °F 6.0 °F 14.0 °F 80% 30.10 in 1.0 mi East 13.8 mph 19.6 mph 0.00 in Snow Light Snow
8:32 AM 19.4 °F 5.5 °F 15.8 °F 86% 30.10 in 0.8 mi ESE 15.0 mph - 0.00 in Snow Light Snow
8:53 AM 19.0 °F 6.1 °F 15.1 °F 85% 30.19 in 1.0 mi ESE 12.7 mph - 0.00 in Snow Light Snow
9:21 AM 19.4 °F 7.2 °F 15.8 °F 86% 30.11 in 0.8 mi East 11.5 mph - 0.01 in Snow Light Snow
9:53 AM 19.9 °F 7.9 °F 17.1 °F 89% 30.19 in 0.8 mi East 11.5 mph - 0.02 in Snow Light Snow
10:45 AM 21.2 °F 7.8 °F 17.6 °F 86% 30.09 in 1.0 mi East 15.0 mph - 0.01 in Snow Light Snow
10:53 AM 21.0 °F 8.1 °F 18.0 °F 88% 30.17 in 1.5 mi East 13.8 mph - 0.01 in Snow Light Snow
11:02 AM 21.2 °F 7.8 °F 17.6 °F 86% 30.08 in 2.5 mi East 15.0 mph - 0.00 in Snow Light Snow
11:22 AM 21.2 °F 8.3 °F 19.4 °F 93% 30.07 in 1.2 mi East 13.8 mph - 0.00 in Snow Light Snow
11:53 AM 23.0 °F 10.6 °F 19.9 °F 88% 30.15 in 0.8 mi East 13.8 mph - 0.01 in Snow Light Snow
12:42 PM 24.8 °F 11.9 °F 21.2 °F 86% 30.05 in 0.8 mi East 16.1 mph - 0.01 in Snow Light Snow
12:53 PM 23.0 °F 10.6 °F 21.0 °F 92% 30.13 in 0.2 mi East 13.8 mph - 0.02 in Fog , Snow Heavy Snow
1:20 PM 23.0 °F 11.7 °F 21.2 °F 93% 30.03 in 0.2 mi East 11.5 mph - 0.05 in Fog , Snow Heavy Snow
1:46 PM 23.0 °F 10.6 °F 21.2 °F 93% 30.01 in 0.2 mi East 13.8 mph - 0.08 in Fog , Snow Heavy Snow
1:53 PM 23.0 °F 11.1 °F 21.0 °F 92% 30.09 in 0.2 mi East 12.7 mph - 0.09 in Fog , Snow Heavy Snow
2:32 PM 21.2 °F 7.8 °F 19.4 °F 93% 29.98 in 0.5 mi East 15.0 mph - 0.04 in Fog , Snow Light Snow
2:48 PM 21.2 °F 7.8 °F 19.4 °F 93% 29.98 in 0.5 mi East 15.0 mph - 0.05 in Fog , Snow Light Snow
2:53 PM 21.9 °F 8.7 °F 19.9 °F 92% 30.06 in 0.5 mi East 15.0 mph - 0.05 in Fog , Snow Light Snow
3:24 PM 21.2 °F 7.3 °F 19.4 °F 93% 29.96 in 1.2 mi East 16.1 mph - 0.02 in Snow Light Snow
3:40 PM 21.2 °F 7.3 °F 19.4 °F 93% 29.96 in 0.5 mi East 16.1 mph 21.9 mph 0.02 in Fog , Snow Light Snow
3:53 PM 21.9 °F 7.3 °F 19.9 °F 92% 30.04 in 0.8 mi East 18.4 mph - 0.03 in Snow Light Snow
4:11 PM 21.2 °F 7.3 °F 19.4 °F 93% 29.95 in 0.8 mi East 16.1 mph - 0.00 in Snow Light Snow
4:21 PM 21.2 °F 7.3 °F 19.4 °F 93% 29.95 in 1.0 mi East 16.1 mph 23.0 mph 0.00 in Snow Light Snow
4:29 PM 23.0 °F 10.1 °F 21.2 °F 93% 29.95 in 0.8 mi East 15.0 mph 21.9 mph 0.00 in Snow Light Snow
4:38 PM 23.0 °F 10.1 °F 21.2 °F 93% 29.95 in 1.5 mi East 15.0 mph - 0.00 in Snow Light Snow
4:53 PM 23.0 °F 9.2 °F 21.0 °F 92% 30.04 in 1.2 mi ESE 17.3 mph - 0.00 in Snow Light Snow
5:24 PM 23.0 °F 9.2 °F 21.2 °F 93% 29.95 in 0.8 mi ESE 17.3 mph - 0.00 in Snow Light Snow
5:51 PM 23.0 °F 9.6 °F 21.2 °F 93% 29.94 in 0.5 mi East 16.1 mph - 0.01 in Fog , Snow Snow
5:53 PM 23.0 °F 9.2 °F 21.0 °F 92% 30.03 in 0.5 mi East 17.3 mph 23.0 mph 0.01 in Fog , Snow Snow
6:25 PM 23.0 °F 10.1 °F 21.2 °F 93% 29.93 in 1.0 mi East 15.0 mph - 0.01 in Snow Light Snow
6:29 PM 23.0 °F 8.7 °F 21.2 °F 93% 29.94 in 1.5 mi East 18.4 mph - 0.01 in Snow Light Snow
6:38 PM 23.0 °F 9.6 °F 21.2 °F 93% 29.94 in 2.0 mi East 16.1 mph - 0.01 in Snow Light Snow
6:49 PM 23.0 °F 9.2 °F 21.2 °F 93% 29.94 in 1.2 mi East 17.3 mph - 0.01 in Snow Light Snow
6:50 PM 23.0 °F 9.2 °F 21.0 °F 92% 30.03 in 1.2 mi East 17.3 mph - 0.01 in Snow Light Snow
6:58 PM 23.0 °F 9.6 °F 21.2 °F 93% 29.95 in 0.8 mi East 16.1 mph - 0.01 in Snow Light Snow
7:21 PM 23.0 °F 10.1 °F 21.2 °F 93% 29.96 in 0.8 mi East 15.0 mph - 0.02 in Snow Light Snow
7:53 PM 23.0 °F 10.6 °F 21.9 °F 96% 30.05 in 0.2 mi East 13.8 mph - 0.05 in Fog , Snow Snow
8:12 PM 24.8 °F 11.1 °F 21.2 °F 86% 29.96 in 0.5 mi ESE 18.4 mph - 0.02 in Fog , Snow Snow
8:31 PM 24.8 °F 10.7 °F 21.2 °F 86% 29.96 in 0.2 mi East 19.6 mph 25.3 mph 0.04 in Fog , Snow Heavy Snow
9:33 PM 23.0 °F 9.6 °F 21.2 °F 93% 29.96 in 0.8 mi East 16.1 mph 25.3 mph 0.01 in Snow Light Snow
9:53 PM 21.9 °F 7.8 °F 21.0 °F 96% 30.06 in 1.0 mi East 17.3 mph - 0.01 in Snow Light Snow
10:03 PM 21.2 °F 7.8 °F 21.2 °F 100% 29.97 in 1.2 mi East 15.0 mph 21.9 mph 0.00 in Snow Light Snow
10:10 PM 21.2 °F 7.3 °F 21.2 °F 100% 29.96 in 1.8 mi East 16.1 mph 24.2 mph 0.00 in Snow Light Snow
10:22 PM 21.2 °F 6.8 °F 19.4 °F 93% 29.96 in 3.0 mi East 17.3 mph - 0.00 in Snow Light Snow
10:31 PM 21.2 °F 6.0 °F 19.4 °F 93% 29.96 in 4.0 mi East 19.6 mph 24.2 mph 0.00 in Snow Light Snow
10:53 PM 21.9 °F 6.5 °F 19.9 °F 92% 30.04 in 3.0 mi East 20.7 mph - 0.00 in Snow Light Snow
11:08 PM 21.2 °F 6.4 °F 19.4 °F 93% 29.95 in 2.5 mi ESE 18.4 mph 28.8 mph 0.00 in Snow Light Snow
11:10 PM 21.2 °F 5.6 °F 19.4 °F 93% 29.95 in 3.0 mi East 20.7 mph 28.8 mph 0.00 in Snow Light Snow
11:36 PM 21.2 °F 6.4 °F 19.4 °F 93% 29.96 in 2.0 mi East 18.4 mph - 0.00 in Snow Light Snow
11:43 PM 21.2 °F 6.8 °F 19.4 °F 93% 29.96 in 1.8 mi ESE 17.3 mph - 0.00 in Snow Light Snow
11:47 PM 21.2 °F 6.8 °F 19.4 °F 93% 29.96 in 2.0 mi East 17.3 mph 24.2 mph 0.00 in Snow Light Snow
11:53 PM 21.0 °F 6.2 °F 19.9 °F 96% 30.04 in 2.5 mi East 18.4 mph - 0.00 in Snow Light Snow